[[{"header":{"parameterUnit":"m.s-1","parameterCategory":1,"la1":30.2991,"la2":30.254,"lo1":-89.0895,"lo2":-89.0444,"dy":0.0017,"dx":0.0017,"nx":28,"ny":28,"refTime":"2024-06-09T03:00:00:Z","depth":0,"parameterNumber":2,"parameterNumberName":"U-component_of_WINDS"},"data":[0,0,0,0,0,0,0,0,0,0,0,0,0,0,0,0,0,0,0,0,0,0,0,0,0,0,0,0,0,0,0,0,0,0,0,0,0,0,0,0,0,0,0,0,0,0,0,0,0,0,0,0,0,0,0,0,0,0,0.0991,0.0991,0,0.0978,0.0978,0.0977,0.0866,0.0863,0.086,0.0857,0.0854,0.0856,0.0859,0,0,0,0,0,0,0,0,0,0,0,0,0,0.0931,0.0932,0.0991,0.0991,0.0991,0.0978,0.0978,0.0977,0.0866,0.0863,0.0859,0.0856,0.0853,0.0856,0.0859,0,0,0,0,0,0,0,0,0,0,0,0,0,0.0941,0.0933,0.0991,0.0933,0.0928,0.0978,0.0978,0.0977,0.0867,0.0863,0.0858,0.0855,0.0852,0.0856,0.0859,0.0967,0,0,0.0871,0.0873,0,0,0,0,0,0,0,0,0.0941,0.0944,0.0942,0.0937,0.0931,0.0919,0.0955,0.0974,0.0868,0.089,0.0857,0.0852,0.088,0.0881,0.0888,0.0966,0.0966,0.0871,0.0874,0.0875,0.0876,0,0,0,0,0,0,0,0.094,0.0944,0.0986,0.0942,0.0936,0.0912,0.0908,0.0958,0.0909,0.0888,0.088,0.0879,0.0876,0.0884,0.0887,0.0966,0.0871,0.0874,0.0877,0.0878,0.1137,0.1142,0,0,0,0,0,0,0.0946,0.0944,0.0986,0.0985,0.0926,0.0916,0.0913,0.0927,0.0908,0.0901,0.0883,0.0874,0.088,0.0883,0.0886,0.1014,0.0875,0.0879,0.0881,0.1133,0.1138,0.1143,0,0,0,0,0,0,0.0945,0.0951,0.0987,0.0962,0.0965,0.0921,0.0939,0.0929,0.0937,0.0904,0.0896,0.09,0.0877,0.0881,0.0948,0.1012,0.088,0.0884,0.1127,0.1134,0.1141,0.1269,0,0,0,0,0,0,0.0944,0.0951,0.0989,0.0964,0.0967,0.1046,0.0943,0.0932,0.0943,0.0932,0.0918,0.0912,0.0874,0.0943,0.0952,0.1015,0.0887,0.1121,0.1131,0.1139,0.1259,0.1279,0.1297,0,0,0,0,0,0.0942,0.1027,0.0991,0.0997,0.1012,0.1049,0.1051,0.1003,0.0949,0.0988,0.0967,0.0912,0.1003,0.0951,0.096,0.1025,0.1117,0.1128,0.1138,0.125,0.1275,0.1296,0,0,0,0,0,0,0.1063,0.1022,0.0983,0.1061,0.1059,0.103,0.1079,0.1031,0.1047,0.1036,0.0979,0.0977,0.1054,0.1045,0.0988,0.113,0.1051,0.1064,0.1133,0.1157,0.1175,0.1178,0.089,0,0,0,0,0,0.1098,0.1129,0.1092,0.1165,0.1166,0.1123,0.1137,0.11,0.1098,0.1097,0.1081,0.1084,0.1113,0.1134,0.1159,0.1256,0.1255,0.1306,0.1325,0.1341,0.1354,0.141,0.1434,0.1178,0.1177,0.1177,0,0,0.1173,0.1154,0.1177,0.1189,0.1183,0.122,0.1123,0.1165,0.1193,0.1105,0.1167,0.1155,0.1155,0.1239,0.1275,0.1234,0.1424,0.1354,0.1367,0.1371,0.1423,0.1447,0.1469,0.1185,0.1183,0.1182,0,0,0.1328,0.1314,0.1375,0.1371,0.1363,0.1334,0.1349,0.1327,0.1316,0.1376,0.1312,0.1346,0.1397,0.14,0.1409,0.1567,0.1519,0.1577,0.1678,0.1733,0.1754,0.1771,0.1833,0.1855,0.1589,0.159,0.159,0,0.1422,0.1471,0.1413,0.146,0.147,0.1388,0.1452,0.1452,0.1454,0.1465,0.1418,0.1482,0.1475,0.1561,0.16,0.1608,0.1627,0.158,0.1754,0.1772,0.1788,0.1846,0.1868,0.1597,0.1596,0.1595,0.1595,0,0.159,0.1625,0.1676,0.1678,0.1692,0.1748,0.1702,0.1725,0.1687,0.1664,0.173,0.1719,0.1743,0.176,0.1724,0.1842,0.1818,0.1764,0.1684,0.1821,0.1874,0.1896,0.1608,0.1605,0.1603,0.1601,0,0,0.1822,0.1791,0.1811,0.1812,0.1798,0.1826,0.188,0.1899,0.1922,0.1927,0.1974,0.2019,0.197,0.198,0.1944,0.1992,0.2124,0.1932,0.1932,0.1973,0.226,0.2303,0.2329,0.209,0.2094,0.2097,0.2261,0,0.1974,0.206,0.2011,0.2107,0.2141,0.2065,0.2112,0.2111,0.2092,0.2122,0.2101,0.2137,0.2066,0.2072,0.2116,0.2099,0.2182,0.2085,0.2139,0.2142,0.2145,0.2356,0.2402,0.2557,0.2281,0.2285,0.2287,0,0.2163,0.2174,0.2272,0.2254,0.2267,0.231,0.2326,0.2353,0.2352,0.2335,0.2347,0.2301,0.2357,0.2275,0.2354,0.229,0.2309,0.2305,0.2309,0.2316,0.2226,0.2373,0.2605,0.263,0.2319,0.2316,0.2314,0,0.2329,0.2367,0.2432,0.2435,0.2414,0.2447,0.244,0.2434,0.2451,0.2466,0.2477,0.2499,0.2513,0.2534,0.2497,0.244,0.2585,0.2498,0.2577,0.2578,0.2613,0.2613,0.2856,0.2619,0.2619,0.2618,0.2618,0,0.2506,0.257,0.2506,0.2546,0.2618,0.2562,0.2635,0.2621,0.2617,0.2657,0.2592,0.2632,0.2579,0.2615,0.2586,0.266,0.2665,0.2657,0.265,0.2665,0.2667,0.268,0.267,0.2624,0.2623,0.2622,0.2621,0,0.2704,0.2662,0.2729,0.2703,0.2698,0.2752,0.2733,0.2772,0.2747,0.2799,0.2808,0.2772,0.2811,0.2775,0.2813,0.2794,0.2894,0.2869,0.2894,0.2888,0.2971,0.2965,0.3234,0.3269,0.3006,0.3009,0.3011,0,0.2821,0.2869,0.2848,0.2868,0.2865,0.2898,0.2914,0.2862,0.2882,0.2886,0.2926,0.2959,0.2983,0.305,0.3031,0.3061,0.3039,0.3131,0.3043,0.3059,0.3046,0.3045,0.3052,0.315,0.3153,0.3156,0.3158,0,0.3037,0.3014,0.3037,0.3055,0.3075,0.3087,0.3094,0.3116,0.3062,0.3089,0.3126,0.3145,0.3183,0.3219,0.3243,0.3241,0.3194,0.3185,0.3206,0.3224,0.3239,0.3237,0.2947,0.318,0.3178,0.3176,0.3175,0.3174,0.3201,0.3241,0.3233,0.3262,0.3262,0.3271,0.3307,0.3287,0.3316,0.3341,0.3309,0.3357,0.3359,0.3385,0.339,0.343,0.3392,0.3421,0.3429,0.3438,0.3452,0.3229,0.3434,0.3433,0.3432,0.3432,0.3431,0,0.3416,0.3407,0.3434,0.3446,0.3471,0.3418,0.3424,0.345,0.3491,0.3495,0.3519,0.3566,0.3601,0.3584,0.3616,0.3652,0.3631,0.3662,0.3661,0.3663,0.3482,0.3463,0.3679,0.3679,0.3679,0.3679,0.3679,0.3679,0.3532,0.3598,0.3575,0.3642,0.3633,0.3677,0.3686,0.3696,0.3699,0.3752,0.3779,0.3767,0.3764,0.3795,0.3827,0.3822,0.3839,0.3879,0.3867,0.3699,0.3675,0.3652,0.3634,0.3882,0.3883,0.4045,0.4047,0.4048]},{"header":{"parameterUnit":"m.s-1","parameterCategory":1,"la1":30.2991,"la2":30.254,"lo1":-89.0895,"lo2":-89.0444,"dy":0.0017,"dx":0.0017,"nx":28,"ny":28,"refTime":"2024-06-09T03:00:00:Z","depth":0,"parameterNumber":3,"parameterNumberName":"V-component_of_WINDS"},"data":[0,0,0,0,0,0,0,0,0,0,0,0,0,0,0,0,0,0,0,0,0,0,0,0,0,0,0,0,0,0,0,0,0,0,0,0,0,0,0,0,0,0,0,0,0,0,0,0,0,0,0,0,0,0,0,0,0,0,-1.0158,-1.0159,0,-1.0239,-1.024,-1.0241,-1.0367,-1.0369,-1.0372,-1.0374,-1.0451,-1.0451,-1.0451,0,0,0,0,0,0,0,0,0,0,0,0,0,-1.0109,-1.0109,-1.0158,-1.0159,-1.016,-1.0239,-1.024,-1.0241,-1.0367,-1.0369,-1.0372,-1.0375,-1.0451,-1.0451,-1.0451,0,0,0,0,0,0,0,0,0,0,0,0,0,-1.0154,-1.0109,-1.0158,-1.0233,-1.024,-1.0238,-1.024,-1.0241,-1.0366,-1.0369,-1.0373,-1.0376,-1.0451,-1.0451,-1.0451,-1.0381,0,0,-1.0451,-1.0451,0,0,0,0,0,0,0,0,-1.0151,-1.0155,-1.0221,-1.0228,-1.0236,-1.0297,-1.0251,-1.0288,-1.0365,-1.0318,-1.0374,-1.0378,-1.0397,-1.0401,-1.0409,-1.0385,-1.0388,-1.0451,-1.0451,-1.0451,-1.045,0,0,0,0,0,0,0,-1.0148,-1.0153,-1.019,-1.0221,-1.0231,-1.026,-1.0271,-1.0258,-1.0337,-1.0322,-1.0332,-1.034,-1.0401,-1.0408,-1.0411,-1.039,-1.0451,-1.0451,-1.045,-1.045,-1.0311,-1.0307,0,0,0,0,0,0,-1.0134,-1.0149,-1.0188,-1.0192,-1.0201,-1.0259,-1.027,-1.0273,-1.0337,-1.0351,-1.0337,-1.0345,-1.0407,-1.0411,-1.0414,-1.0335,-1.0451,-1.045,-1.045,-1.0314,-1.031,-1.0306,0,0,0,0,0,0,-1.0133,-1.0137,-1.0184,-1.0174,-1.0182,-1.0256,-1.0259,-1.0273,-1.028,-1.0348,-1.0362,-1.033,-1.041,-1.0415,-1.0389,-1.034,-1.045,-1.045,-1.0319,-1.0313,-1.0308,-1.0177,0,0,0,0,0,0,-1.0131,-1.0135,-1.0111,-1.0172,-1.0182,-1.0158,-1.0256,-1.0272,-1.028,-1.0292,-1.0345,-1.0357,-1.0413,-1.0388,-1.0388,-1.0341,-1.045,-1.0323,-1.0316,-1.031,-1.0186,-1.0167,-1.0152,0,0,0,0,0,-1.0129,-1.007,-1.0109,-1.0113,-1.0153,-1.0155,-1.016,-1.0227,-1.0276,-1.0251,-1.0294,-1.0356,-1.0346,-1.0384,-1.0386,-1.0338,-1.0327,-1.0318,-1.031,-1.0193,-1.0171,-1.0152,0,0,0,0,0,0,-0.9999,-1.0079,-1.0123,-1.0083,-1.0111,-1.0176,-1.0147,-1.0201,-1.0215,-1.0225,-1.0306,-1.0317,-1.0279,-1.0307,-1.0348,-1.0273,-1.0345,-1.0337,-1.0256,-1.0235,-1.0219,-1.0211,-1.045,0,0,0,0,0,-0.9967,-0.9963,-1.0033,-0.999,-1.0003,-1.0072,-1.0075,-1.0124,-1.0156,-1.0168,-1.021,-1.0237,-1.024,-1.024,-1.0246,-1.0191,-1.0203,-1.0159,-1.0142,-1.0128,-1.0119,-1.0089,-1.0069,-1.0279,-1.0279,-1.0279,0,0,-0.9898,-0.9941,-0.9934,-0.9965,-0.9993,-0.9985,-1.0081,-1.0069,-1.0064,-1.0166,-1.0143,-1.0175,-1.021,-1.0169,-1.0152,-1.019,-1.0064,-1.0118,-1.0106,-1.0104,-1.0078,-1.0058,-1.0041,-1.0273,-1.0274,-1.0275,0,0,-0.9768,-0.9802,-0.9769,-0.9795,-0.9837,-0.9883,-0.9875,-0.9932,-0.9957,-0.9936,-1.0012,-1.0006,-1.001,-1.0031,-1.0043,-0.9921,-0.9977,-0.9921,-0.9831,-0.9801,-0.9785,-0.977,-0.9724,-0.9706,-0.9912,-0.9912,-0.9912,0,-0.9677,-0.967,-0.9745,-0.9729,-0.9739,-0.9833,-0.9799,-0.982,-0.986,-0.9864,-0.9907,-0.9913,-0.9944,-0.9907,-0.9878,-0.9885,-0.9876,-0.9914,-0.9781,-0.9768,-0.9755,-0.9712,-0.9694,-0.9905,-0.9906,-0.9906,-0.9907,0,-0.9555,-0.9549,-0.9517,-0.9555,-0.9562,-0.9537,-0.9606,-0.9604,-0.9653,-0.9694,-0.967,-0.9711,-0.9726,-0.9722,-0.9768,-0.9691,-0.9713,-0.9767,-0.9841,-0.9727,-0.9687,-0.9671,-0.9894,-0.9897,-0.9899,-0.9901,0,0,-0.9344,-0.9424,-0.9411,-0.9428,-0.948,-0.9476,-0.9454,-0.9471,-0.9466,-0.9491,-0.9473,-0.9474,-0.9525,-0.9538,-0.9588,-0.9562,-0.9459,-0.962,-0.9621,-0.9585,-0.9372,-0.9328,-0.9307,-0.9498,-0.9495,-0.9493,-0.9368,0,-0.9223,-0.9191,-0.9258,-0.9209,-0.9203,-0.9292,-0.9273,-0.9301,-0.9339,-0.9338,-0.938,-0.9378,-0.9447,-0.9455,-0.9434,-0.9476,-0.9416,-0.9486,-0.9478,-0.9477,-0.9463,-0.9287,-0.9241,-0.9121,-0.9353,-0.9351,-0.9349,0,-0.9077,-0.9095,-0.9045,-0.9099,-0.9099,-0.908,-0.91,-0.9099,-0.9133,-0.9162,-0.9176,-0.9235,-0.9215,-0.9289,-0.9261,-0.9307,-0.9308,-0.9328,-0.9325,-0.9323,-0.9403,-0.9278,-0.9085,-0.9066,-0.9326,-0.9328,-0.9329,0,-0.8924,-0.8936,-0.8908,-0.892,-0.8983,-0.8967,-0.8992,-0.903,-0.9035,-0.9052,-0.9055,-0.9069,-0.9075,-0.9084,-0.9144,-0.9193,-0.9108,-0.9187,-0.9129,-0.9127,-0.9104,-0.9104,-0.8905,-0.911,-0.911,-0.9111,-0.9111,0,-0.8779,-0.8744,-0.8839,-0.8821,-0.8784,-0.8861,-0.8822,-0.8856,-0.8889,-0.8877,-0.8956,-0.8943,-0.9025,-0.9021,-0.9068,-0.9036,-0.9039,-0.906,-0.9072,-0.9051,-0.9047,-0.905,-0.9058,-0.9106,-0.9107,-0.9108,-0.9109,0,-0.8601,-0.8664,-0.8638,-0.87,-0.8715,-0.8684,-0.8736,-0.8721,-0.8765,-0.8749,-0.875,-0.8817,-0.8816,-0.8878,-0.8889,-0.8921,-0.8866,-0.8896,-0.8855,-0.8863,-0.8799,-0.8803,-0.8592,-0.8567,-0.8791,-0.8789,-0.8787,0,-0.8503,-0.8478,-0.8538,-0.8536,-0.8558,-0.8555,-0.856,-0.8635,-0.8637,-0.8673,-0.8652,-0.8658,-0.8666,-0.8659,-0.8708,-0.8716,-0.8744,-0.867,-0.8745,-0.8724,-0.8738,-0.8737,-0.8733,-0.8652,-0.8649,-0.8647,-0.8645,0,-0.8321,-0.8353,-0.8359,-0.8375,-0.8379,-0.8395,-0.8416,-0.841,-0.8491,-0.8489,-0.849,-0.8496,-0.8507,-0.851,-0.8528,-0.8552,-0.861,-0.8621,-0.8608,-0.8583,-0.8559,-0.8568,-0.8807,-0.8625,-0.8627,-0.8628,-0.863,-0.863,-0.8178,-0.8159,-0.8197,-0.8201,-0.8224,-0.8242,-0.823,-0.8272,-0.8274,-0.829,-0.8334,-0.8325,-0.8358,-0.8388,-0.8407,-0.84,-0.8437,-0.8418,-0.8412,-0.8405,-0.8392,-0.8563,-0.8404,-0.8405,-0.8405,-0.8406,-0.8407,0,-0.7997,-0.8026,-0.8029,-0.8055,-0.8057,-0.8115,-0.8141,-0.8137,-0.813,-0.8156,-0.8163,-0.8161,-0.8165,-0.8214,-0.8222,-0.8207,-0.8234,-0.8207,-0.8206,-0.821,-0.836,-0.837,-0.8185,-0.8185,-0.8185,-0.8185,-0.8185,-0.8185,-0.7903,-0.7873,-0.791,-0.7892,-0.7922,-0.7915,-0.7924,-0.7939,-0.7961,-0.7956,-0.796,-0.7993,-0.8027,-0.8039,-0.8043,-0.8058,-0.8055,-0.8018,-0.804,-0.8179,-0.82,-0.822,-0.8229,-0.8018,-0.8018,-0.7891,-0.7889,-0.7888]}]]